Location: McFarlands Corners
(41.4117°N, 81.3382°W)
Time: 07:35:40
(UTC+00:00)

Vanguard 1 Rocket - Pass Details

Date: 21 February 2026
Orbit: 653 x 4214 km, 34.3° (Epoch: 12 March)

Event Time Altitude Azimuth Distance (km) Brightness Sun altitude
Rises 15:16:41 0° 179° (S) 3,361 11.0 28.7°
Reaches altitude 10° 15:21:59 10° 137° (SE) 2,995 11.7 29.4°
Maximum altitude 15:22:56 10° 129° (SE) 3,090 11.7 29.5°
Drops below altitude 10° 15:23:57 10° 121° (ESE) 3,238 11.6 29.6°
Sets 15:31:54 0° 85° (E) 5,257 11.7 30.5°
